START_TIME,STEP,MOV.,EG07,t_acc.,EG08,t_acc.,EG09,t_acc.,EB05,t_acc.,EBP05,t_acc.
1979-07-21 12:00:22.540 ,0,0,0.,1.2,0.,1.2,0.,1.2,,0.0,,0.0
1979-07-21 12:00:23.740 ,0,0,0.,1.2,0.,1.2,0.,1.2,,0.0,,0.0
1979-07-21 12:00:24.940 ,0,0,0.,1.2,0.,1.2,0.,1.2,,0.0,,0.0
1979-07-21 12:00:26.140 ,0,0,0.,1.2,0.,1.2,0.,1.2,,0.0,,0.0
1979-07-21 12:00:27.340 ,0,0,0.,1.2,0.,1.2,0.,1.2,,0.0,,0.0
1979-07-21 12:00:28.540 ,0,0,0.,1.2,0.,1.2,0.,1.2,,0.0,,0.0
1979-07-21 12:00:29.740 ,0,0,0.,1.2,0.,1.2,0.,1.2,,0.0,,0.0
1979-07-21 12:00:30.940 ,0,0,0.,1.2,0.,1.2,0.,1.2,,0.0,,0.0
1979-07-21 12:00:32.140 ,0,0,0.,1.2,0.,1.2,0.,1.2,,0.0,,0.0
1979-07-21 12:00:33.340 ,0,0,0.,1.2,0.,1.2,0.,1.2,,0.0,,0.0
1979-07-21 12:00:34.540 ,0,0,0.,1.2,0.,1.2,0.,1.2,,0.0,,0.0
1979-07-21 12:00:35.740 ,0,0,0.,1.2,0.,1.2,0.,1.2,,0.0,,0.0
1979-07-21 12:00:36.940 ,0,0,0.,1.2,0.,1.2,0.,1.2,,0.0,,0.0
1979-07-21 12:00:38.140 ,0,0,0.,1.2,0.,1.2,0.,1.2,,0.0,,0.0
1979-07-21 12:00:39.340 ,0,0,0.,1.2,0.,1.2,0.,1.2,,0.0,,0.0
1979-07-21 12:00:40.540 ,0,0,0.,1.2,0.,1.2,0.,1.2,,0.0,,0.0
1979-07-21 12:00:41.740 ,0,0,0.,1.2,0.,1.2,0.,1.2,,0.0,,0.0
1979-07-21 12:00:42.940 ,0,0,0.,1.2,0.,1.2,0.,1.2,,0.0,,0.0
1979-07-21 12:00:44.140 ,0,0,0.,1.2,0.,1.2,0.,1.2,,0.0,,0.0
1979-07-21 12:00:45.340 ,0,0,0.,1.2,0.,1.2,0.,1.2,,0.0,,0.0
1979-07-21 12:00:46.540 ,1,0,0.,1.2,0.,1.2,0.,1.2,,0.0,,0.0
1979-07-21 12:00:47.740 ,1,0,0.,1.2,0.,1.2,0.,1.2,,0.0,,0.0
1979-07-21 12:00:48.940 ,1,0,0.,1.2,0.,1.2,0.,1.2,,0.0,,0.0
1979-07-21 12:00:50.140 ,1,0,2.,1.2,2.,1.2,1.,1.2,,0.0,,0.0
1979-07-21 12:00:51.340 ,1,0,0.,1.2,0.,1.2,0.,1.2,,0.0,,0.0
1979-07-21 12:00:52.540 ,1,0,0.,1.2,0.,1.2,0.,1.2,,0.0,,0.0
1979-07-21 12:00:53.740 ,1,0,0.,1.2,0.,1.2,0.,1.2,,0.0,,0.0
1979-07-21 12:00:54.940 ,1,0,0.,1.2,0.,1.2,0.,1.2,,0.0,,0.0
1979-07-21 12:00:56.140 ,1,0,0.,1.2,0.,1.2,0.,1.2,,0.0,,0.0
1979-07-21 12:00:57.340 ,1,0,0.,1.2,0.,1.2,0.,1.2,,0.0,,0.0
1979-07-21 12:00:58.540 ,1,0,0.,1.2,0.,1.2,0.,1.2,,0.0,,0.0
1979-07-21 12:00:59.740 ,1,0,0.,1.2,0.,1.2,0.,1.2,,0.0,,0.0
1979-07-21 12:01:00.940 ,1,0,0.,1.2,0.,1.2,0.,1.2,,0.0,,0.0
1979-07-21 12:01:02.140 ,1,0,0.,1.2,0.,1.2,0.,1.2,,0.0,,0.0
1979-07-21 12:01:03.340 ,1,0,0.,1.2,0.,1.2,0.,1.2,,0.0,,0.0
1979-07-21 12:01:04.540 ,1,0,1.,1.2,0.,1.2,0.,1.2,,0.0,,0.0
1979-07-21 12:01:05.740 ,1,0,0.,1.2,0.,1.2,0.,1.2,,0.0,,0.0
1979-07-21 12:01:06.940 ,1,0,1.,1.2,0.,1.2,0.,1.2,,0.0,,0.0
1979-07-21 12:01:08.140 ,1,0,0.,1.2,0.,1.2,0.,1.2,,0.0,,0.0
1979-07-21 12:01:09.340 ,1,0,1.,1.2,0.,1.2,0.,1.2,,0.0,,0.0
1979-07-21 12:01:10.540 ,1,0,0.,1.2,0.,1.2,0.,1.2,,0.0,,0.0
1979-07-21 12:01:11.740 ,1,0,0.,1.2,0.,1.2,0.,1.2,,0.0,,0.0
1979-07-21 12:01:12.940 ,1,0,0.,1.2,0.,1.2,0.,1.2,,0.0,,0.0
1979-07-21 12:01:14.140 ,1,0,0.,1.2,0.,1.2,0.,1.2,,0.0,,0.0
1979-07-21 12:01:15.340 ,1,0,0.,1.2,0.,1.2,0.,1.2,,0.0,,0.0
1979-07-21 12:01:16.540 ,1,0,0.,1.2,0.,1.2,0.,1.2,,0.0,,0.0
1979-07-21 12:01:17.740 ,1,0,0.,1.2,0.,1.2,0.,1.2,,0.0,,0.0
1979-07-21 12:01:18.940 ,1,0,0.,1.2,0.,1.2,0.,1.2,,0.0,,0.0
1979-07-21 12:01:20.140 ,1,0,0.,1.2,0.,1.2,0.,1.2,,0.0,,0.0
1979-07-21 12:01:21.340 ,1,0,0.,1.2,0.,1.2,0.,1.2,,0.0,,0.0
1979-07-21 12:01:22.540 ,1,0,1.,1.2,0.,1.2,0.,1.2,,0.0,,0.0
1979-07-21 12:01:23.740 ,1,0,1.,1.2,1.,1.2,0.,1.2,,0.0,,0.0
1979-07-21 12:01:24.940 ,1,0,0.,1.2,0.,1.2,0.,1.2,,0.0,,0.0
1979-07-21 12:01:26.140 ,1,0,2.,1.2,1.,1.2,0.,1.2,,0.0,,0.0
1979-07-21 12:01:27.340 ,1,0,1.,1.2,0.,1.2,0.,1.2,,0.0,,0.0
1979-07-21 12:01:28.540 ,1,0,0.,1.2,0.,1.2,0.,1.2,,0.0,,0.0
1979-07-21 12:01:29.740 ,1,0,3.,1.2,1.,1.2,0.,1.2,,0.0,,0.0
1979-07-21 12:01:30.940 ,1,0,0.,1.2,0.,1.2,0.,1.2,,0.0,,0.0
1979-07-21 12:01:32.140 ,1,0,0.,1.2,0.,1.2,0.,1.2,,0.0,,0.0
1979-07-21 12:01:33.340 ,1,0,0.,1.2,0.,1.2,0.,1.2,,0.0,,0.0
1979-07-21 12:01:34.540 ,2,0,1.,1.2,0.,1.2,0.,1.2,,0.0,,0.0
1979-07-21 12:01:35.740 ,2,0,0.,1.2,0.,1.2,0.,1.2,,0.0,,0.0
1979-07-21 12:01:36.940 ,2,0,1.,1.2,0.,1.2,0.,1.2,,0.0,,0.0
1979-07-21 12:01:38.140 ,2,0,1.,1.2,1.,1.2,1.,1.2,,0.0,,0.0
1979-07-21 12:01:39.340 ,2,0,0.,1.2,0.,1.2,0.,1.2,,0.0,,0.0
1979-07-21 12:01:40.540 ,2,0,0.,1.2,0.,1.2,0.,1.2,,0.0,,0.0
1979-07-21 12:01:41.740 ,2,0,0.,1.2,0.,1.2,0.,1.2,,0.0,,0.0
1979-07-21 12:01:42.940 ,2,0,0.,1.2,0.,1.2,0.,1.2,,0.0,,0.0
1979-07-21 12:01:44.140 ,2,0,0.,1.2,0.,1.2,0.,1.2,,0.0,,0.0
1979-07-21 12:01:45.340 ,2,0,0.,1.2,0.,1.2,0.,1.2,,0.0,,0.0
1979-07-21 12:01:46.540 ,2,0,0.,1.2,0.,1.2,0.,1.2,,0.0,,0.0
1979-07-21 12:01:47.740 ,2,0,0.,1.2,0.,1.2,0.,1.2,,0.0,,0.0
1979-07-21 12:01:48.940 ,2,0,0.,1.2,0.,1.2,0.,1.2,,0.0,,0.0
1979-07-21 12:01:50.140 ,2,0,0.,1.2,0.,1.2,0.,1.2,,0.0,,0.0
1979-07-21 12:01:51.340 ,2,0,0.,1.2,0.,1.2,0.,1.2,,0.0,,0.0
1979-07-21 12:01:52.540 ,2,0,1.,1.2,0.,1.2,0.,1.2,,0.0,,0.0
1979-07-21 12:01:53.740 ,2,0,1.,1.2,0.,1.2,0.,1.2,,0.0,,0.0
1979-07-21 12:01:54.940 ,2,0,0.,1.2,0.,1.2,0.,1.2,,0.0,,0.0
1979-07-21 12:01:56.140 ,2,0,1.,1.2,0.,1.2,0.,1.2,,0.0,,0.0
1979-07-21 12:01:57.340 ,2,0,1.,1.2,1.,1.2,0.,1.2,,0.0,,0.0
1979-07-21 12:01:58.540 ,2,0,1.,1.2,1.,1.2,1.,1.2,,0.0,,0.0
1979-07-21 12:01:59.740 ,2,0,0.,1.2,0.,1.2,0.,1.2,,0.0,,0.0
1979-07-21 12:02:00.940 ,2,0,0.,1.2,0.,1.2,0.,1.2,,0.0,,0.0
1979-07-21 12:02:02.140 ,2,0,2.,1.2,0.,1.2,0.,1.2,,0.0,,0.0
1979-07-21 12:02:03.340 ,2,0,0.,1.2,0.,1.2,0.,1.2,,0.0,,0.0
1979-07-21 12:02:04.540 ,2,0,1.,1.2,1.,1.2,0.,1.2,,0.0,,0.0
1979-07-21 12:02:05.740 ,2,0,0.,1.2,0.,1.2,0.,1.2,,0.0,,0.0
1979-07-21 12:02:06.940 ,2,0,1.,1.2,1.,1.2,1.,1.2,,0.0,,0.0
1979-07-21 12:02:08.140 ,2,0,0.,1.2,0.,1.2,0.,1.2,,0.0,,0.0
1979-07-21 12:02:09.340 ,2,0,0.,1.2,0.,1.2,0.,1.2,,0.0,,0.0
1979-07-21 12:02:10.540 ,2,0,0.,1.2,0.,1.2,0.,1.2,,0.0,,0.0
1979-07-21 12:02:11.740 ,2,0,0.,1.2,0.,1.2,0.,1.2,,0.0,,0.0
1979-07-21 12:02:12.940 ,2,0,0.,1.2,0.,1.2,0.,1.2,,0.0,,0.0
1979-07-21 12:02:14.140 ,2,0,0.,1.2,0.,1.2,0.,1.2,,0.0,,0.0
1979-07-21 12:02:15.340 ,2,0,0.,1.2,0.,1.2,0.,1.2,,0.0,,0.0
1979-07-21 12:02:16.540 ,2,0,0.,1.2,0.,1.2,0.,1.2,,0.0,,0.0
1979-07-21 12:02:17.740 ,2,0,0.,1.2,0.,1.2,0.,1.2,,0.0,,0.0
1979-07-21 12:02:18.940 ,2,0,0.,1.2,0.,1.2,0.,1.2,,0.0,,0.0
1979-07-21 12:02:20.140 ,2,0,0.,1.2,0.,1.2,0.,1.2,,0.0,,0.0
1979-07-21 12:02:21.340 ,2,0,0.,1.2,0.,1.2,0.,1.2,,0.0,,0.0
1979-07-21 12:02:22.540 ,3,0,0.,1.2,0.,1.2,0.,1.2,,0.0,,0.0
1979-07-21 12:02:23.740 ,3,0,0.,1.2,0.,1.2,0.,1.2,,0.0,,0.0
1979-07-21 12:02:24.940 ,3,0,1.,1.2,1.,1.2,0.,1.2,,0.0,,0.0
1979-07-21 12:02:26.140 ,3,0,0.,1.2,0.,1.2,0.,1.2,,0.0,,0.0
1979-07-21 12:02:27.340 ,3,0,0.,1.2,0.,1.2,0.,1.2,,0.0,,0.0
1979-07-21 12:02:28.540 ,3,0,0.,1.2,0.,1.2,0.,1.2,,0.0,,0.0
1979-07-21 12:02:29.740 ,3,0,0.,1.2,0.,1.2,0.,1.2,,0.0,,0.0
1979-07-21 12:02:30.940 ,3,0,0.,1.2,0.,1.2,0.,1.2,,0.0,,0.0
1979-07-21 12:02:32.140 ,3,0,0.,1.2,0.,1.2,0.,1.2,,0.0,,0.0
1979-07-21 12:02:33.340 ,3,0,0.,1.2,0.,1.2,0.,1.2,,0.0,,0.0
1979-07-21 12:02:34.540 ,3,0,1.,1.2,1.,1.2,1.,1.2,,0.0,,0.0
1979-07-21 12:02:35.740 ,3,0,0.,1.2,0.,1.2,0.,1.2,,0.0,,0.0
1979-07-21 12:02:36.940 ,3,0,0.,1.2,0.,1.2,0.,1.2,,0.0,,0.0
1979-07-21 12:02:38.140 ,3,0,0.,1.2,0.,1.2,0.,1.2,,0.0,,0.0
1979-07-21 12:02:39.340 ,3,0,0.,1.2,0.,1.2,0.,1.2,,0.0,,0.0
1979-07-21 12:02:40.540 ,3,0,1.,1.2,0.,1.2,0.,1.2,,0.0,,0.0
1979-07-21 12:02:41.740 ,3,0,0.,1.2,0.,1.2,0.,1.2,,0.0,,0.0
1979-07-21 12:02:42.940 ,3,0,1.,1.2,1.,1.2,0.,1.2,,0.0,,0.0
1979-07-21 12:02:44.140 ,3,0,0.,1.2,0.,1.2,0.,1.2,,0.0,,0.0
1979-07-21 12:02:45.340 ,3,0,0.,1.2,0.,1.2,0.,1.2,,0.0,,0.0
1979-07-21 12:02:46.540 ,3,0,0.,1.2,0.,1.2,0.,1.2,,0.0,,0.0
1979-07-21 12:02:47.740 ,3,0,0.,1.2,0.,1.2,0.,1.2,,0.0,,0.0
1979-07-21 12:02:48.940 ,3,0,0.,1.2,0.,1.2,0.,1.2,,0.0,,0.0
1979-07-21 12:02:50.140 ,3,0,1.,1.2,0.,1.2,0.,1.2,,0.0,,0.0
1979-07-21 12:02:51.340 ,3,0,0.,1.2,0.,1.2,0.,1.2,,0.0,,0.0
1979-07-21 12:02:52.540 ,3,0,2.,1.2,1.,1.2,0.,1.2,,0.0,,0.0
1979-07-21 12:02:53.740 ,3,0,0.,1.2,0.,1.2,0.,1.2,,0.0,,0.0
1979-07-21 12:02:54.940 ,3,0,0.,1.2,0.,1.2,0.,1.2,,0.0,,0.0
1979-07-21 12:02:56.140 ,3,0,0.,1.2,0.,1.2,0.,1.2,,0.0,,0.0
1979-07-21 12:02:57.340 ,3,0,0.,1.2,0.,1.2,0.,1.2,,0.0,,0.0
1979-07-21 12:02:58.540 ,3,0,0.,1.2,0.,1.2,0.,1.2,,0.0,,0.0
1979-07-21 12:02:59.740 ,3,0,0.,1.2,0.,1.2,0.,1.2,,0.0,,0.0
1979-07-21 12:03:00.940 ,3,0,0.,1.2,0.,1.2,0.,1.2,,0.0,,0.0
1979-07-21 12:03:02.140 ,3,0,0.,1.2,0.,1.2,0.,1.2,,0.0,,0.0
1979-07-21 12:03:03.340 ,3,0,0.,1.2,0.,1.2,0.,1.2,,0.0,,0.0
1979-07-21 12:03:04.540 ,3,0,0.,1.2,0.,1.2,0.,1.2,,0.0,,0.0
1979-07-21 12:03:05.740 ,3,0,0.,1.2,0.,1.2,0.,1.2,,0.0,,0.0
1979-07-21 12:03:06.940 ,3,0,0.,1.2,0.,1.2,0.,1.2,,0.0,,0.0
1979-07-21 12:03:08.140 ,3,0,0.,1.2,0.,1.2,0.,1.2,,0.0,,0.0
1979-07-21 12:03:09.340 ,3,0,0.,1.2,0.,1.2,0.,1.2,,0.0,,0.0
1979-07-21 12:03:10.540 ,4,0,0.,1.2,0.,1.2,0.,1.2,,0.0,,0.0
1979-07-21 12:03:11.740 ,4,0,0.,1.2,0.,1.2,0.,1.2,,0.0,,0.0
1979-07-21 12:03:12.940 ,4,0,0.,1.2,0.,1.2,0.,1.2,,0.0,,0.0
1979-07-21 12:03:14.140 ,4,0,0.,1.2,0.,1.2,0.,1.2,,0.0,,0.0
1979-07-21 12:03:15.340 ,4,0,0.,1.2,0.,1.2,0.,1.2,,0.0,,0.0
1979-07-21 12:03:16.540 ,4,0,1.,1.2,0.,1.2,0.,1.2,,0.0,,0.0
1979-07-21 12:03:17.740 ,4,0,2.,1.2,1.,1.2,0.,1.2,,0.0,,0.0
1979-07-21 12:03:18.940 ,4,0,0.,1.2,0.,1.2,0.,1.2,,0.0,,0.0
1979-07-21 12:03:20.140 ,4,0,0.,1.2,0.,1.2,0.,1.2,,0.0,,0.0
1979-07-21 12:03:21.340 ,4,0,0.,1.2,0.,1.2,0.,1.2,,0.0,,0.0
1979-07-21 12:03:22.540 ,4,0,1.,1.2,1.,1.2,0.,1.2,,0.0,,0.0
1979-07-21 12:03:23.740 ,4,0,0.,1.2,0.,1.2,0.,1.2,,0.0,,0.0
1979-07-21 12:03:24.940 ,4,0,1.,1.2,1.,1.2,0.,1.2,,0.0,,0.0
1979-07-21 12:03:26.140 ,4,0,0.,1.2,0.,1.2,0.,1.2,,0.0,,0.0
1979-07-21 12:03:27.340 ,4,0,0.,1.2,0.,1.2,0.,1.2,,0.0,,0.0
1979-07-21 12:03:28.540 ,4,0,0.,1.2,0.,1.2,0.,1.2,,0.0,,0.0
1979-07-21 12:03:29.740 ,4,0,0.,1.2,0.,1.2,0.,1.2,,0.0,,0.0
1979-07-21 12:03:30.940 ,4,0,0.,1.2,0.,1.2,0.,1.2,,0.0,,0.0
1979-07-21 12:03:32.140 ,4,0,0.,1.2,0.,1.2,0.,1.2,,0.0,,0.0
1979-07-21 12:03:33.340 ,4,0,0.,1.2,0.,1.2,0.,1.2,,0.0,,0.0
1979-07-21 12:03:34.540 ,4,0,0.,1.2,0.,1.2,0.,1.2,,0.0,,0.0
1979-07-21 12:03:35.740 ,4,0,0.,1.2,0.,1.2,0.,1.2,,0.0,,0.0
1979-07-21 12:03:36.940 ,4,0,0.,1.2,0.,1.2,0.,1.2,,0.0,,0.0
1979-07-21 12:03:38.140 ,4,0,0.,1.2,0.,1.2,0.,1.2,,0.0,,0.0
1979-07-21 12:03:39.340 ,4,0,0.,1.2,0.,1.2,0.,1.2,,0.0,,0.0
1979-07-21 12:03:40.540 ,4,0,0.,1.2,0.,1.2,0.,1.2,,0.0,,0.0
1979-07-21 12:03:41.740 ,4,0,0.,1.2,0.,1.2,0.,1.2,,0.0,,0.0
1979-07-21 12:03:42.940 ,4,0,2.,1.2,0.,1.2,0.,1.2,,0.0,,0.0
1979-07-21 12:03:44.140 ,4,0,0.,1.2,0.,1.2,0.,1.2,,0.0,,0.0
1979-07-21 12:03:45.340 ,4,0,0.,1.2,0.,1.2,0.,1.2,,0.0,,0.0
1979-07-21 12:03:46.540 ,4,0,0.,1.2,0.,1.2,0.,1.2,,0.0,,0.0
1979-07-21 12:03:47.740 ,4,0,0.,1.2,0.,1.2,0.,1.2,,0.0,,0.0
1979-07-21 12:03:48.940 ,4,0,0.,1.2,0.,1.2,0.,1.2,,0.0,,0.0
1979-07-21 12:03:50.140 ,4,0,0.,1.2,0.,1.2,0.,1.2,,0.0,,0.0
1979-07-21 12:03:51.340 ,4,0,0.,1.2,0.,1.2,0.,1.2,,0.0,,0.0
1979-07-21 12:03:52.540 ,4,0,0.,1.2,0.,1.2,0.,1.2,,0.0,,0.0
1979-07-21 12:03:53.740 ,4,0,0.,1.2,0.,1.2,0.,1.2,,0.0,,0.0
1979-07-21 12:03:54.940 ,4,0,0.,1.2,0.,1.2,0.,1.2,,0.0,,0.0
1979-07-21 12:03:56.140 ,4,0,0.,1.2,0.,1.2,0.,1.2,,0.0,,0.0
1979-07-21 12:03:57.340 ,4,0,0.,1.2,0.,1.2,0.,1.2,,0.0,,0.0
1979-07-21 12:03:58.540 ,5,0,0.,1.2,0.,1.2,0.,1.2,,0.0,,0.0
1979-07-21 12:03:59.740 ,5,0,0.,1.2,0.,1.2,0.,1.2,,0.0,,0.0
1979-07-21 12:04:00.940 ,5,0,0.,1.2,0.,1.2,0.,1.2,,0.0,,0.0
1979-07-21 12:04:02.140 ,5,0,0.,1.2,0.,1.2,0.,1.2,,0.0,,0.0
1979-07-21 12:04:03.340 ,5,0,0.,1.2,0.,1.2,0.,1.2,,0.0,,0.0
1979-07-21 12:04:04.540 ,5,0,0.,1.2,0.,1.2,0.,1.2,,0.0,,0.0
1979-07-21 12:04:05.740 ,5,0,0.,1.2,0.,1.2,0.,1.2,,0.0,,0.0
1979-07-21 12:04:06.940 ,5,0,0.,1.2,0.,1.2,0.,1.2,,0.0,,0.0
1979-07-21 12:04:08.140 ,5,0,0.,1.2,0.,1.2,0.,1.2,,0.0,,0.0
1979-07-21 12:04:09.340 ,5,0,0.,1.2,0.,1.2,0.,1.2,,0.0,,0.0
1979-07-21 12:04:10.540 ,5,0,0.,1.2,0.,1.2,0.,1.2,,0.0,,0.0
1979-07-21 12:04:11.740 ,5,0,0.,1.2,0.,1.2,0.,1.2,,0.0,,0.0
1979-07-21 12:04:12.940 ,5,0,0.,1.2,0.,1.2,0.,1.2,,0.0,,0.0
1979-07-21 12:04:14.140 ,5,0,1.,1.2,1.,1.2,0.,1.2,,0.0,,0.0
1979-07-21 12:04:15.340 ,5,0,0.,1.2,0.,1.2,0.,1.2,,0.0,,0.0
1979-07-21 12:04:16.540 ,5,0,0.,1.2,0.,1.2,0.,1.2,,0.0,,0.0
1979-07-21 12:04:17.740 ,5,0,0.,1.2,0.,1.2,0.,1.2,,0.0,,0.0
1979-07-21 12:04:18.940 ,5,0,1.,1.2,0.,1.2,0.,1.2,,0.0,,0.0
1979-07-21 12:04:20.140 ,5,0,0.,1.2,0.,1.2,0.,1.2,,0.0,,0.0
1979-07-21 12:04:21.340 ,5,0,0.,1.2,0.,1.2,0.,1.2,,0.0,,0.0
1979-07-21 12:04:22.540 ,5,0,0.,1.2,0.,1.2,0.,1.2,,0.0,,0.0
1979-07-21 12:04:23.740 ,5,0,0.,1.2,0.,1.2,0.,1.2,,0.0,,0.0
1979-07-21 12:04:24.940 ,5,0,0.,1.2,0.,1.2,0.,1.2,,0.0,,0.0
1979-07-21 12:04:26.140 ,5,0,0.,1.2,0.,1.2,0.,1.2,,0.0,,0.0
1979-07-21 12:04:27.340 ,5,0,0.,1.2,0.,1.2,0.,1.2,,0.0,,0.0
1979-07-21 12:04:28.540 ,5,0,0.,1.2,0.,1.2,0.,1.2,,0.0,,0.0
1979-07-21 12:04:29.740 ,5,0,0.,1.2,0.,1.2,0.,1.2,,0.0,,0.0
1979-07-21 12:04:30.940 ,5,0,0.,1.2,0.,1.2,0.,1.2,,0.0,,0.0
1979-07-21 12:04:32.140 ,5,0,0.,1.2,0.,1.2,0.,1.2,,0.0,,0.0
1979-07-21 12:04:33.340 ,5,0,0.,1.2,0.,1.2,0.,1.2,,0.0,,0.0
1979-07-21 12:04:34.540 ,5,0,0.,1.2,0.,1.2,0.,1.2,,0.0,,0.0
1979-07-21 12:04:35.740 ,5,0,0.,1.2,0.,1.2,0.,1.2,,0.0,,0.0
1979-07-21 12:04:36.940 ,5,0,0.,1.2,0.,1.2,0.,1.2,,0.0,,0.0
1979-07-21 12:04:38.140 ,5,0,0.,1.2,0.,1.2,0.,1.2,,0.0,,0.0
1979-07-21 12:04:39.340 ,5,0,0.,1.2,0.,1.2,0.,1.2,,0.0,,0.0
1979-07-21 12:04:40.540 ,5,0,0.,1.2,0.,1.2,0.,1.2,,0.0,,0.0
1979-07-21 12:04:41.740 ,5,0,1.,1.2,0.,1.2,0.,1.2,,0.0,,0.0
1979-07-21 12:04:42.940 ,5,0,0.,1.2,0.,1.2,0.,1.2,,0.0,,0.0
1979-07-21 12:04:44.140 ,5,0,0.,1.2,0.,1.2,0.,1.2,,0.0,,0.0
1979-07-21 12:04:45.340 ,5,0,0.,1.2,0.,1.2,0.,1.2,,0.0,,0.0
1979-07-21 12:04:46.540 ,6,0,0.,1.2,0.,1.2,0.,1.2,,0.0,,0.0
1979-07-21 12:04:47.740 ,6,0,0.,1.2,0.,1.2,0.,1.2,,0.0,,0.0
1979-07-21 12:04:48.940 ,6,0,0.,1.2,0.,1.2,0.,1.2,,0.0,,0.0
1979-07-21 12:04:50.140 ,6,0,0.,1.2,0.,1.2,0.,1.2,,0.0,,0.0
1979-07-21 12:04:51.340 ,6,0,0.,1.2,0.,1.2,0.,1.2,,0.0,,0.0
1979-07-21 12:04:52.540 ,6,0,0.,1.2,0.,1.2,0.,1.2,,0.0,,0.0
1979-07-21 12:04:53.740 ,6,0,0.,1.2,0.,1.2,0.,1.2,,0.0,,0.0
1979-07-21 12:04:54.940 ,6,0,0.,1.2,0.,1.2,0.,1.2,,0.0,,0.0
1979-07-21 12:04:56.140 ,6,0,0.,1.2,0.,1.2,0.,1.2,,0.0,,0.0
1979-07-21 12:04:57.340 ,6,0,0.,1.2,0.,1.2,0.,1.2,,0.0,,0.0
1979-07-21 12:04:58.540 ,6,0,0.,1.2,0.,1.2,0.,1.2,,0.0,,0.0
1979-07-21 12:04:59.740 ,6,0,1.,1.2,1.,1.2,0.,1.2,,0.0,,0.0
1979-07-21 12:05:00.940 ,6,0,1.,1.2,1.,1.2,1.,1.2,,0.0,,0.0
1979-07-21 12:05:02.140 ,6,0,0.,1.2,0.,1.2,0.,1.2,,0.0,,0.0
1979-07-21 12:05:03.340 ,6,0,0.,1.2,0.,1.2,0.,1.2,,0.0,,0.0
1979-07-21 12:05:04.540 ,6,0,0.,1.2,0.,1.2,0.,1.2,,0.0,,0.0
1979-07-21 12:05:05.740 ,6,0,0.,1.2,0.,1.2,0.,1.2,,0.0,,0.0
1979-07-21 12:05:06.940 ,6,0,0.,1.2,0.,1.2,0.,1.2,,0.0,,0.0
1979-07-21 12:05:08.140 ,6,0,0.,1.2,0.,1.2,0.,1.2,,0.0,,0.0
1979-07-21 12:05:09.340 ,6,0,0.,1.2,0.,1.2,0.,1.2,,0.0,,0.0
1979-07-21 12:05:10.540 ,6,0,1.,1.2,1.,1.2,0.,1.2,,0.0,,0.0
1979-07-21 12:05:11.740 ,6,0,0.,1.2,0.,1.2,0.,1.2,,0.0,,0.0
1979-07-21 12:05:12.940 ,6,0,0.,1.2,0.,1.2,0.,1.2,,0.0,,0.0
1979-07-21 12:05:14.140 ,6,0,0.,1.2,0.,1.2,0.,1.2,,0.0,,0.0
1979-07-21 12:05:15.340 ,6,0,0.,1.2,0.,1.2,0.,1.2,,0.0,,0.0
1979-07-21 12:05:16.540 ,6,0,0.,1.2,0.,1.2,0.,1.2,,0.0,,0.0
1979-07-21 12:05:17.740 ,6,0,1.,1.2,0.,1.2,0.,1.2,,0.0,,0.0
1979-07-21 12:05:18.940 ,6,0,0.,1.2,0.,1.2,0.,1.2,,0.0,,0.0
1979-07-21 12:05:20.140 ,6,0,0.,1.2,0.,1.2,0.,1.2,,0.0,,0.0
1979-07-21 12:05:21.340 ,6,0,0.,1.2,0.,1.2,0.,1.2,,0.0,,0.0
1979-07-21 12:05:22.540 ,6,0,0.,1.2,0.,1.2,0.,1.2,,0.0,,0.0
1979-07-21 12:05:23.740 ,6,0,0.,1.2,0.,1.2,0.,1.2,,0.0,,0.0
1979-07-21 12:05:24.940 ,6,0,0.,1.2,0.,1.2,0.,1.2,,0.0,,0.0
1979-07-21 12:05:26.140 ,6,0,0.,1.2,0.,1.2,0.,1.2,,0.0,,0.0
1979-07-21 12:05:27.340 ,6,0,0.,1.2,0.,1.2,0.,1.2,,0.0,,0.0
1979-07-21 12:05:28.540 ,6,0,0.,1.2,0.,1.2,0.,1.2,,0.0,,0.0
1979-07-21 12:05:29.740 ,6,0,0.,1.2,0.,1.2,0.,1.2,,0.0,,0.0
1979-07-21 12:05:30.940 ,6,0,0.,1.2,0.,1.2,0.,1.2,,0.0,,0.0
1979-07-21 12:05:32.140 ,6,0,0.,1.2,0.,1.2,0.,1.2,,0.0,,0.0
1979-07-21 12:05:33.340 ,6,0,0.,1.2,0.,1.2,0.,1.2,,0.0,,0.0
1979-07-21 12:05:34.530 ,7,0,0.,1.2,0.,1.2,0.,1.2,,0.0,,0.0
1979-07-21 12:05:35.730 ,7,0,1.,1.2,1.,1.2,0.,1.2,,0.0,,0.0
1979-07-21 12:05:36.930 ,7,0,0.,1.2,0.,1.2,0.,1.2,,0.0,,0.0
1979-07-21 12:05:38.130 ,7,0,1.,1.2,0.,1.2,0.,1.2,,0.0,,0.0
1979-07-21 12:05:39.330 ,7,0,0.,1.2,0.,1.2,0.,1.2,,0.0,,0.0
1979-07-21 12:05:40.530 ,7,0,0.,1.2,0.,1.2,0.,1.2,,0.0,,0.0
1979-07-21 12:05:41.730 ,7,0,0.,1.2,0.,1.2,0.,1.2,,0.0,,0.0
1979-07-21 12:05:42.930 ,7,0,0.,1.2,0.,1.2,0.,1.2,,0.0,,0.0
1979-07-21 12:05:44.130 ,7,0,0.,1.2,0.,1.2,0.,1.2,,0.0,,0.0
1979-07-21 12:05:45.330 ,7,0,0.,1.2,0.,1.2,0.,1.2,,0.0,,0.0
1979-07-21 12:05:46.530 ,7,0,0.,1.2,0.,1.2,0.,1.2,,0.0,,0.0
1979-07-21 12:05:47.730 ,7,0,0.,1.2,0.,1.2,0.,1.2,,0.0,,0.0
1979-07-21 12:05:48.930 ,7,0,0.,1.2,0.,1.2,0.,1.2,,0.0,,0.0
1979-07-21 12:05:50.130 ,7,0,1.,1.2,0.,1.2,0.,1.2,,0.0,,0.0
1979-07-21 12:05:51.330 ,7,0,1.,1.2,0.,1.2,0.,1.2,,0.0,,0.0
1979-07-21 12:05:52.530 ,7,0,1.,1.2,0.,1.2,0.,1.2,,0.0,,0.0
1979-07-21 12:05:53.730 ,7,0,0.,1.2,0.,1.2,0.,1.2,,0.0,,0.0
1979-07-21 12:05:54.930 ,7,0,0.,1.2,0.,1.2,0.,1.2,,0.0,,0.0
1979-07-21 12:05:56.130 ,7,0,0.,1.2,0.,1.2,0.,1.2,,0.0,,0.0
1979-07-21 12:05:57.330 ,7,0,0.,1.2,0.,1.2,0.,1.2,,0.0,,0.0
1979-07-21 12:05:58.530 ,7,0,0.,1.2,0.,1.2,0.,1.2,,0.0,,0.0
1979-07-21 12:05:59.730 ,7,0,0.,1.2,0.,1.2,0.,1.2,,0.0,,0.0
1979-07-21 12:06:00.930 ,7,0,0.,1.2,0.,1.2,0.,1.2,,0.0,,0.0
1979-07-21 12:06:02.130 ,7,0,0.,1.2,0.,1.2,0.,1.2,,0.0,,0.0
1979-07-21 12:06:03.330 ,7,0,0.,1.2,0.,1.2,0.,1.2,,0.0,,0.0
1979-07-21 12:06:04.530 ,7,0,0.,1.2,0.,1.2,0.,1.2,,0.0,,0.0
1979-07-21 12:06:05.730 ,7,0,1.,1.2,0.,1.2,0.,1.2,,0.0,,0.0
1979-07-21 12:06:06.930 ,7,0,0.,1.2,0.,1.2,0.,1.2,,0.0,,0.0
1979-07-21 12:06:08.130 ,7,0,0.,1.2,0.,1.2,0.,1.2,,0.0,,0.0
1979-07-21 12:06:09.330 ,7,0,0.,1.2,0.,1.2,0.,1.2,,0.0,,0.0
1979-07-21 12:06:10.530 ,7,0,0.,1.2,0.,1.2,0.,1.2,,0.0,,0.0
1979-07-21 12:06:11.730 ,7,0,1.,1.2,1.,1.2,0.,1.2,,0.0,,0.0
1979-07-21 12:06:12.930 ,7,0,0.,1.2,0.,1.2,0.,1.2,,0.0,,0.0
1979-07-21 12:06:14.130 ,7,0,0.,1.2,0.,1.2,0.,1.2,,0.0,,0.0
1979-07-21 12:06:15.330 ,7,0,1.,1.2,1.,1.2,1.,1.2,,0.0,,0.0
1979-07-21 12:06:16.530 ,7,0,0.,1.2,0.,1.2,0.,1.2,,0.0,,0.0
1979-07-21 12:06:17.730 ,7,0,0.,1.2,0.,1.2,0.,1.2,,0.0,,0.0
1979-07-21 12:06:18.930 ,7,0,1.,1.2,0.,1.2,0.,1.2,,0.0,,0.0
1979-07-21 12:06:20.130 ,7,0,1.,1.2,0.,1.2,0.,1.2,,0.0,,0.0
1979-07-21 12:06:21.330 ,7,0,1.,1.2,0.,1.2,0.,1.2,,0.0,,0.0
1979-07-21 12:06:22.530 ,7,0,0.,1.2,0.,1.2,0.,1.2,,0.0,,0.0
1979-07-21 12:06:23.730 ,7,0,1.,1.2,0.,1.2,0.,1.2,,0.0,,0.0
1979-07-21 12:06:24.930 ,7,0,1.,1.2,0.,1.2,0.,1.2,,0.0,,0.0
1979-07-21 12:06:26.130 ,7,0,0.,1.2,0.,1.2,0.,1.2,,0.0,,0.0
1979-07-21 12:06:27.330 ,7,0,0.,1.2,0.,1.2,0.,1.2,,0.0,,0.0
1979-07-21 12:06:28.530 ,7,0,0.,1.2,0.,1.2,0.,1.2,,0.0,,0.0
1979-07-21 12:06:29.730 ,7,0,0.,1.2,0.,1.2,0.,1.2,,0.0,,0.0
1979-07-21 12:06:30.930 ,7,0,0.,1.2,0.,1.2,0.,1.2,,0.0,,0.0
1979-07-21 12:06:32.130 ,7,0,0.,1.2,0.,1.2,0.,1.2,,0.0,,0.0
1979-07-21 12:06:33.330 ,7,0,0.,1.2,0.,1.2,0.,1.2,,0.0,,0.0
1979-07-21 12:06:34.530 ,7,0,0.,1.2,0.,1.2,0.,1.2,,0.0,,0.0
1979-07-21 12:06:35.730 ,7,0,1.,1.2,0.,1.2,0.,1.2,,0.0,,0.0
1979-07-21 12:06:36.930 ,7,0,0.,1.2,0.,1.2,0.,1.2,,0.0,,0.0
1979-07-21 12:06:38.130 ,7,0,0.,1.2,0.,1.2,0.,1.2,,0.0,,0.0
1979-07-21 12:06:39.330 ,7,0,0.,1.2,0.,1.2,0.,1.2,,0.0,,0.0
1979-07-21 12:06:40.530 ,7,0,0.,1.2,0.,1.2,0.,1.2,,0.0,,0.0
1979-07-21 12:06:41.730 ,7,0,0.,1.2,0.,1.2,0.,1.2,,0.0,,0.0
1979-07-21 12:06:42.930 ,7,0,0.,1.2,0.,1.2,0.,1.2,,0.0,,0.0
1979-07-21 12:06:44.130 ,7,0,0.,1.2,0.,1.2,0.,1.2,,0.0,,0.0
1979-07-21 12:06:45.330 ,7,0,0.,1.2,0.,1.2,0.,1.2,,0.0,,0.0
1979-07-21 12:06:46.530 ,7,0,0.,1.2,0.,1.2,0.,1.2,,0.0,,0.0
1979-07-21 12:06:47.730 ,7,0,0.,1.2,0.,1.2,0.,1.2,,0.0,,0.0
1979-07-21 12:06:48.930 ,7,0,0.,1.2,0.,1.2,0.,1.2,,0.0,,0.0
1979-07-21 12:06:50.130 ,7,0,1.,1.2,0.,1.2,0.,1.2,,0.0,,0.0
1979-07-21 12:06:51.330 ,7,0,0.,1.2,0.,1.2,0.,1.2,,0.0,,0.0
1979-07-21 12:06:52.530 ,7,0,1.,1.2,1.,1.2,0.,1.2,,0.0,,0.0
1979-07-21 12:06:53.730 ,7,0,0.,1.2,0.,1.2,0.,1.2,,0.0,,0.0
1979-07-21 12:06:54.930 ,7,0,0.,1.2,0.,1.2,0.,1.2,,0.0,,0.0
1979-07-21 12:06:56.130 ,7,0,0.,1.2,0.,1.2,0.,1.2,,0.0,,0.0
1979-07-21 12:06:57.330 ,7,0,1.,1.2,0.,1.2,0.,1.2,,0.0,,0.0
1979-07-21 12:06:58.530 ,7,0,0.,1.2,0.,1.2,0.,1.2,,0.0,,0.0
1979-07-21 12:06:59.730 ,7,0,0.,1.2,0.,1.2,0.,1.2,,0.0,,0.0
1979-07-21 12:07:00.930 ,7,0,0.,1.2,0.,1.2,0.,1.2,,0.0,,0.0
1979-07-21 12:07:02.130 ,7,0,1.,1.2,1.,1.2,0.,1.2,,0.0,,0.0
1979-07-21 12:07:03.330 ,7,0,1.,1.2,0.,1.2,0.,1.2,,0.0,,0.0
1979-07-21 12:07:04.530 ,7,0,0.,1.2,0.,1.2,0.,1.2,,0.0,,0.0
1979-07-21 12:07:05.730 ,7,0,0.,1.2,0.,1.2,0.,1.2,,0.0,,0.0
1979-07-21 12:07:06.930 ,7,0,1.,1.2,0.,1.2,0.,1.2,,0.0,,0.0
1979-07-21 12:07:08.130 ,7,0,1.,1.2,0.,1.2,0.,1.2,,0.0,,0.0
1979-07-21 12:07:09.330 ,7,0,0.,1.2,0.,1.2,0.,1.2,,0.0,,0.0
1979-07-21 12:07:10.530 ,6,0,0.,1.2,0.,1.2,0.,1.2,,0.0,,0.0
1979-07-21 12:07:11.730 ,6,0,0.,1.2,0.,1.2,0.,1.2,,0.0,,0.0
1979-07-21 12:07:12.930 ,6,0,1.,1.2,0.,1.2,0.,1.2,,0.0,,0.0
1979-07-21 12:07:14.130 ,6,0,0.,1.2,0.,1.2,0.,1.2,,0.0,,0.0
1979-07-21 12:07:15.330 ,6,0,0.,1.2,0.,1.2,0.,1.2,,0.0,,0.0
1979-07-21 12:07:16.530 ,6,0,0.,1.2,0.,1.2,0.,1.2,,0.0,,0.0
1979-07-21 12:07:17.730 ,6,0,0.,1.2,0.,1.2,0.,1.2,,0.0,,0.0
1979-07-21 12:07:18.930 ,6,0,0.,1.2,0.,1.2,0.,1.2,,0.0,,0.0
1979-07-21 12:07:20.130 ,6,0,0.,1.2,0.,1.2,0.,1.2,,0.0,,0.0
1979-07-21 12:07:21.330 ,6,0,2.,1.2,0.,1.2,0.,1.2,,0.0,,0.0
1979-07-21 12:07:22.530 ,6,0,1.,1.2,0.,1.2,0.,1.2,,0.0,,0.0
1979-07-21 12:07:23.730 ,6,0,0.,1.2,0.,1.2,0.,1.2,,0.0,,0.0
1979-07-21 12:07:24.930 ,6,0,0.,1.2,0.,1.2,0.,1.2,,0.0,,0.0
1979-07-21 12:07:26.130 ,6,0,0.,1.2,0.,1.2,0.,1.2,,0.0,,0.0
1979-07-21 12:07:27.330 ,6,0,1.,1.2,1.,1.2,1.,1.2,,0.0,,0.0
1979-07-21 12:07:28.530 ,6,0,0.,1.2,0.,1.2,0.,1.2,,0.0,,0.0
1979-07-21 12:07:29.730 ,6,0,0.,1.2,0.,1.2,0.,1.2,,0.0,,0.0
1979-07-21 12:07:30.930 ,6,0,0.,1.2,0.,1.2,0.,1.2,,0.0,,0.0
1979-07-21 12:07:32.130 ,6,0,0.,1.2,0.,1.2,0.,1.2,,0.0,,0.0
1979-07-21 12:07:33.330 ,6,0,0.,1.2,0.,1.2,0.,1.2,,0.0,,0.0
1979-07-21 12:07:34.530 ,6,0,0.,1.2,0.,1.2,0.,1.2,,0.0,,0.0
1979-07-21 12:07:35.730 ,6,0,0.,1.2,0.,1.2,0.,1.2,,0.0,,0.0
1979-07-21 12:07:36.930 ,6,0,0.,1.2,0.,1.2,0.,1.2,,0.0,,0.0
1979-07-21 12:07:38.130 ,6,0,0.,1.2,0.,1.2,0.,1.2,,0.0,,0.0
1979-07-21 12:07:39.330 ,6,0,0.,1.2,0.,1.2,0.,1.2,,0.0,,0.0
1979-07-21 12:07:40.530 ,6,0,0.,1.2,0.,1.2,0.,1.2,,0.0,,0.0
1979-07-21 12:07:41.730 ,6,0,0.,1.2,0.,1.2,0.,1.2,,0.0,,0.0
1979-07-21 12:07:42.930 ,6,0,1.,1.2,0.,1.2,0.,1.2,,0.0,,0.0
1979-07-21 12:07:44.130 ,6,0,0.,1.2,0.,1.2,0.,1.2,,0.0,,0.0
1979-07-21 12:07:45.330 ,6,0,0.,1.2,0.,1.2,0.,1.2,,0.0,,0.0
1979-07-21 12:07:46.530 ,6,0,0.,1.2,0.,1.2,0.,1.2,,0.0,,0.0
1979-07-21 12:07:47.730 ,6,0,0.,1.2,0.,1.2,0.,1.2,,0.0,,0.0
1979-07-21 12:07:48.930 ,6,0,0.,1.2,0.,1.2,0.,1.2,,0.0,,0.0
1979-07-21 12:07:50.130 ,6,0,1.,1.2,0.,1.2,0.,1.2,,0.0,,0.0
1979-07-21 12:07:51.330 ,6,0,0.,1.2,0.,1.2,0.,1.2,,0.0,,0.0
1979-07-21 12:07:52.530 ,6,0,0.,1.2,0.,1.2,0.,1.2,,0.0,,0.0
1979-07-21 12:07:53.730 ,6,0,0.,1.2,0.,1.2,0.,1.2,,0.0,,0.0
1979-07-21 12:07:54.930 ,6,0,0.,1.2,0.,1.2,0.,1.2,,0.0,,0.0
1979-07-21 12:07:56.130 ,6,0,0.,1.2,0.,1.2,0.,1.2,,0.0,,0.0
1979-07-21 12:07:57.330 ,6,0,0.,1.2,0.,1.2,0.,1.2,,0.0,,0.0
1979-07-21 12:07:58.530 ,5,0,1.,1.2,0.,1.2,0.,1.2,,0.0,,0.0
1979-07-21 12:07:59.730 ,5,0,0.,1.2,0.,1.2,0.,1.2,,0.0,,0.0
1979-07-21 12:08:00.930 ,5,0,0.,1.2,0.,1.2,0.,1.2,,0.0,,0.0
1979-07-21 12:08:02.130 ,5,0,0.,1.2,0.,1.2,0.,1.2,,0.0,,0.0
1979-07-21 12:08:03.330 ,5,0,0.,1.2,0.,1.2,0.,1.2,,0.0,,0.0
1979-07-21 12:08:04.530 ,5,0,0.,1.2,0.,1.2,0.,1.2,,0.0,,0.0
1979-07-21 12:08:05.730 ,5,0,0.,1.2,0.,1.2,0.,1.2,,0.0,,0.0
1979-07-21 12:08:06.930 ,5,0,0.,1.2,0.,1.2,0.,1.2,,0.0,,0.0
1979-07-21 12:08:08.130 ,5,0,1.,1.2,1.,1.2,0.,1.2,,0.0,,0.0
1979-07-21 12:08:09.330 ,5,0,0.,1.2,0.,1.2,0.,1.2,,0.0,,0.0
1979-07-21 12:08:10.530 ,5,0,0.,1.2,0.,1.2,0.,1.2,,0.0,,0.0
1979-07-21 12:08:11.730 ,5,0,1.,1.2,1.,1.2,0.,1.2,,0.0,,0.0